Location: Vilnius
(54.6830°N, 25.3170°E)
Time: 10:12:11
(UTC+02:00)

ISS - Visible Passes

Search period start: 24 February 2018 00:00
Search period end: 06 March 2018 00:00
Orbit: 402 x 407 km, 51.6° (Epoch: 24 February)

Date Brightness Start Highest point End Pass type
(mag) Time Alt. Az. Time Alt. Az. Time Alt. Az.
27 Feb -0.8 06:36:19 10° S 06:37:55 13° SE 06:39:32 10° ESE visible
01 Mar -1.5 06:27:01 10° SSW 06:29:34 21° SSE 06:32:06 10° E visible
02 Mar -1.1 05:35:34 10° S 05:37:31 15° SE 05:39:29 10° ESE visible
03 Mar -2.2 06:18:18 10° SW 06:21:14 30° SSE 06:24:10 10° E visible
04 Mar -1.9 05:26:59 13° SSW 05:29:06 23° SSE 05:31:47 10° E visible
05 Mar -1.5 04:36:49 17° SSE 04:37:00 17° SSE 04:39:13 10° ESE visible
05 Mar -2.8 06:09:49 10° WSW 06:12:56 41° SSE 06:16:03 10° E visible
